Brownwood, TX

10:00 AM CDT on June 22, 2017 (GMT -0500)
Brownwood Regional

Weather History for KBWD - May, 2013

Change the Weather History Date:

Thursday, May 30, 2013

  Actual Average (KABI) Record (KABI)
Temperature  
Mean Temperature 82 °F -  
Max Temperature 91 °F 87 °F 105 °F (1896)
Min Temperature 73 °F 63 °F 47 °F (1947)
Cooling Degree Days 17    
Growing Degree Days 32 (Base 50)    
Moisture  
Dew Point 68 °F    
Average Humidity 65    
Maximum Humidity 83    
Minimum Humidity 46    
Precipitation  
Precipitation 0.00 in - - ()
Sea Level Pressure  
Sea Level Pressure 29.77 in    
Wind  
Wind Speed 15 mph (SSE)    
Max Wind Speed 22 mph    
Max Gust Speed 30 mph    
Visibility 10 miles    
Events      
Averages and records for this station are not official NWS values.
T = Trace of Precipitation, MM = Missing Value Source: NWS Daily Summary

Daily Weather History Graph

Daily Weather History Graph

Search for Another Location

Airport or City:

Trip Planner

Search our weather history database for the weather conditions in past years. The results will help you decide how hot, cold, wet, or windy it might be!

Date:

Astronomy

May. 30, 2013 Rise Set
Actual Time 6:31 AM CDT 8:35 PM CDT
Civil Twilight 6:03 AM CDT 9:03 PM CDT
Nautical Twilight 5:30 AM CDT 9:36 PM CDT
Astronomical Twilight 4:54 AM CDT 10:13 PM CDT
Moon 12:50 AM CDT (5/30) 12:27 PM CDT (5/30)
Length of Visible Light 14h 59m
Length of Day
14h 04m
Waning Gibbous, 62% of the Moon is Illuminated
May 30
Waning Gibbous
May 31
Last Quarter
Jun 8
New
Jun 16
First Quarter
Jun 23
Full

Hourly Weather History & Observations

Time (CDT) Temp. Heat Index Dew Point Humidity Pressure Visibility Wind Dir Wind Speed Gust Speed Precip Events Conditions
12:15 AM 77.0 °F - 68.0 °F 74% 29.75 in 10.0 mi SSE 15.0 mph 23.0 mph N/A   Overcast
12:35 AM 77.0 °F - 68.0 °F 74% 29.76 in 10.0 mi SSE 18.4 mph 25.3 mph N/A   Overcast
12:55 AM 77.0 °F - 68.0 °F 74% 29.76 in 10.0 mi SSE 16.1 mph 25.3 mph N/A   Overcast
1:15 AM 77.0 °F - 68.0 °F 74% 29.76 in 10.0 mi SSE 17.3 mph 23.0 mph N/A   Overcast
1:35 AM 77.0 °F - 68.0 °F 74% 29.77 in 10.0 mi South 13.8 mph 18.4 mph N/A   Overcast
1:55 AM 77.0 °F - 68.0 °F 74% 29.77 in 10.0 mi South 9.2 mph - N/A   Overcast
2:15 AM 75.2 °F - 68.0 °F 78% 29.77 in 10.0 mi South 12.7 mph 17.3 mph N/A   Overcast
2:35 AM 75.2 °F - 68.0 °F 78% 29.77 in 9.0 mi SSE 15.0 mph 21.9 mph N/A   Overcast
2:55 AM 73.4 °F - 68.0 °F 83% 29.76 in 10.0 mi SSE 13.8 mph 21.9 mph N/A   Overcast
3:15 AM 73.4 °F - 68.0 °F 83% 29.75 in 10.0 mi SSE 13.8 mph 19.6 mph N/A   Mostly Cloudy
3:35 AM 75.2 °F - 68.0 °F 78% 29.75 in 10.0 mi SSE 16.1 mph 23.0 mph N/A   Mostly Cloudy
3:55 AM 73.4 °F - 68.0 °F 83% 29.76 in 10.0 mi SSE 15.0 mph 23.0 mph N/A   Overcast
4:15 AM 73.4 °F - 66.2 °F 78% 29.76 in 8.0 mi SSE 15.0 mph 21.9 mph N/A   Overcast
4:35 AM 73.4 °F - 66.2 °F 78% 29.76 in 10.0 mi SSE 12.7 mph 21.9 mph N/A   Overcast
4:55 AM 75.2 °F - 66.2 °F 73% 29.77 in 10.0 mi SSE 13.8 mph 19.6 mph N/A   Overcast
5:15 AM 75.2 °F - 66.2 °F 73% 29.77 in 10.0 mi South 13.8 mph 19.6 mph N/A   Overcast
5:35 AM 75.2 °F - 66.2 °F 73% 29.78 in 10.0 mi SSE 9.2 mph 16.1 mph N/A   Overcast
5:55 AM 75.2 °F - 66.2 °F 73% 29.78 in 10.0 mi South 11.5 mph 16.1 mph N/A   Overcast
6:15 AM 73.4 °F - 66.2 °F 78% 29.78 in 10.0 mi South 13.8 mph 18.4 mph N/A   Mostly Cloudy
6:35 AM 73.4 °F - 66.2 °F 78% 29.78 in 10.0 mi SSE 13.8 mph 19.6 mph N/A   Overcast
6:55 AM 73.4 °F - 66.2 °F 78% 29.79 in 10.0 mi South 13.8 mph - N/A   Overcast
7:15 AM 73.4 °F - 68.0 °F 83% 29.79 in 10.0 mi South 9.2 mph 17.3 mph N/A   Overcast
7:35 AM 73.4 °F - 68.0 °F 83% 29.80 in 10.0 mi South 10.4 mph 18.4 mph N/A   Overcast
7:55 AM 73.4 °F - 68.0 °F 83% 29.80 in 10.0 mi South 11.5 mph 20.7 mph N/A   Overcast
8:15 AM 75.2 °F - 68.0 °F 78% 29.80 in 10.0 mi South 9.2 mph 21.9 mph N/A   Mostly Cloudy
8:35 AM 75.2 °F - 68.0 °F 78% 29.81 in 10.0 mi SSE 12.7 mph 19.6 mph N/A   Overcast
8:55 AM 75.2 °F - 68.0 °F 78% 29.81 in 10.0 mi SSE 12.7 mph 19.6 mph N/A   Overcast
9:15 AM 75.2 °F - 68.0 °F 78% 29.81 in 10.0 mi SSE 10.4 mph 19.6 mph N/A   Overcast
9:35 AM 75.2 °F - 68.0 °F 78% 29.82 in 10.0 mi South 16.1 mph 21.9 mph N/A   Overcast
9:55 AM 77.0 °F - 68.0 °F 74% 29.81 in 10.0 mi South 17.3 mph 25.3 mph N/A   Overcast
10:15 AM 77.0 °F - 68.0 °F 74% 29.81 in 10.0 mi South 19.6 mph 27.6 mph N/A   Overcast
10:35 AM 77.0 °F - 68.0 °F 74% 29.82 in 10.0 mi South 16.1 mph 23.0 mph N/A   Overcast
10:55 AM 77.0 °F - 68.0 °F 74% 29.82 in 10.0 mi South 18.4 mph 24.2 mph N/A   Overcast
11:15 AM 78.8 °F - 68.0 °F 69% 29.82 in 10.0 mi South 13.8 mph 25.3 mph N/A   Overcast
11:35 AM 80.6 °F 83.2 °F 68.0 °F 65% 29.82 in 10.0 mi South 16.1 mph 24.2 mph N/A   Overcast
11:55 AM 80.6 °F 83.2 °F 68.0 °F 65% 29.82 in 10.0 mi South 16.1 mph 20.7 mph N/A   Overcast
12:15 PM 82.4 °F 85.4 °F 68.0 °F 62% 29.81 in 10.0 mi South 13.8 mph 17.3 mph N/A   Overcast
12:35 PM 84.2 °F 87.3 °F 68.0 °F 58% 29.81 in 10.0 mi South 15.0 mph 24.2 mph N/A   Mostly Cloudy
12:55 PM 86.0 °F 89.4 °F 68.0 °F 55% 29.80 in 10.0 mi South 19.6 mph 25.3 mph N/A   Mostly Cloudy
1:15 PM 86.0 °F 89.4 °F 68.0 °F 55% 29.79 in 10.0 mi South 19.6 mph 28.8 mph N/A   Mostly Cloudy
1:35 PM 86.0 °F 88.2 °F 66.2 °F 51% 29.79 in 10.0 mi SSW 17.3 mph 28.8 mph N/A   Scattered Clouds
1:55 PM 89.6 °F 93.4 °F 68.0 °F 49% 29.78 in 10.0 mi South 18.4 mph 23.0 mph N/A   Scattered Clouds
2:15 PM 87.8 °F 91.4 °F 68.0 °F 52% 29.78 in 10.0 mi South 18.4 mph 28.8 mph N/A   Scattered Clouds
2:35 PM 89.6 °F 93.4 °F 68.0 °F 49% 29.77 in 10.0 mi South 21.9 mph 28.8 mph N/A   Partly Cloudy
2:55 PM 89.6 °F 93.4 °F 68.0 °F 49% 29.76 in 10.0 mi South 15.0 mph 21.9 mph N/A   Scattered Clouds
3:15 PM 89.6 °F 93.4 °F 68.0 °F 49% 29.76 in 10.0 mi South 16.1 mph 28.8 mph N/A   Scattered Clouds
3:35 PM 91.4 °F 95.4 °F 68.0 °F 46% 29.75 in 10.0 mi SSE 13.8 mph 25.3 mph N/A   Scattered Clouds
3:55 PM 89.6 °F 93.4 °F 68.0 °F 49% 29.75 in 10.0 mi South 16.1 mph 21.9 mph N/A   Partly Cloudy
4:15 PM 91.4 °F 95.4 °F 68.0 °F 46% 29.74 in 10.0 mi SSE 17.3 mph 25.3 mph N/A   Partly Cloudy
4:35 PM 91.4 °F 95.4 °F 68.0 °F 46% 29.74 in 10.0 mi SSE 18.4 mph 25.3 mph N/A   Clear
4:55 PM 89.6 °F 93.4 °F 68.0 °F 49% 29.73 in 10.0 mi SSE 19.6 mph 26.5 mph N/A   Clear
5:15 PM 89.6 °F 93.4 °F 68.0 °F 49% 29.73 in 10.0 mi South 17.3 mph 27.6 mph N/A   Clear
5:35 PM 89.6 °F 93.4 °F 68.0 °F 49% 29.73 in 10.0 mi South 20.7 mph 29.9 mph N/A   Clear
5:55 PM 89.6 °F 93.4 °F 68.0 °F 49% 29.73 in 10.0 mi South 17.3 mph 24.2 mph N/A   Clear
6:15 PM 89.6 °F 93.4 °F 68.0 °F 49% 29.72 in 10.0 mi South 17.3 mph 26.5 mph N/A   Clear
6:35 PM 89.6 °F 93.4 °F 68.0 °F 49% 29.72 in 10.0 mi South 17.3 mph 26.5 mph N/A   Clear
6:55 PM 87.8 °F 91.4 °F 68.0 °F 52% 29.72 in 10.0 mi SSE 18.4 mph 26.5 mph N/A   Clear
7:15 PM 86.0 °F 89.4 °F 68.0 °F 55% 29.72 in 10.0 mi SSE 18.4 mph 27.6 mph N/A   Clear
7:35 PM 86.0 °F 89.4 °F 68.0 °F 55% 29.72 in 10.0 mi SSE 15.0 mph 21.9 mph N/A   Clear
7:55 PM 84.2 °F 87.3 °F 68.0 °F 58% 29.73 in 10.0 mi SSE 15.0 mph 25.3 mph N/A   Clear
8:15 PM 84.2 °F 86.6 °F 66.2 °F 55% 29.73 in 10.0 mi SSE 11.5 mph 25.3 mph N/A   Clear
8:35 PM 84.2 °F 86.6 °F 66.2 °F 55% 29.74 in 10.0 mi SSE 16.1 mph 25.3 mph N/A   Clear
8:55 PM 82.4 °F 84.6 °F 66.2 °F 58% 29.74 in 10.0 mi SSE 15.0 mph 23.0 mph N/A   Clear
9:15 PM 82.4 °F 84.6 °F 66.2 °F 58% 29.76 in 10.0 mi SSE 11.5 mph 18.4 mph N/A   Clear
9:35 PM 82.4 °F 84.6 °F 66.2 °F 58% 29.77 in 10.0 mi SSE 12.7 mph - N/A   Clear
9:55 PM 82.4 °F 84.6 °F 66.2 °F 58% 29.78 in 10.0 mi SSE 11.5 mph 18.4 mph N/A   Clear
10:15 PM 80.6 °F 82.7 °F 66.2 °F 61% 29.78 in 10.0 mi SSE 12.7 mph 16.1 mph N/A   Clear
10:35 PM 80.6 °F 82.7 °F 66.2 °F 61% 29.79 in 10.0 mi SSE 10.4 mph - N/A   Clear
10:55 PM 78.8 °F - 66.2 °F 65% 29.80 in 10.0 mi South 11.5 mph - N/A   Clear
11:15 PM 78.8 °F - 66.2 °F 65% 29.80 in 10.0 mi SSE 12.7 mph - N/A   Clear
11:35 PM 77.0 °F - 68.0 °F 74% 29.80 in 10.0 mi South 10.4 mph 16.1 mph N/A   Clear
11:55 PM 77.0 °F - 68.0 °F 74% 29.81 in 10.0 mi South 8.1 mph - N/A   Clear